Time,TemperatureF,DewpointF,PressureIn,WindDirection,WindDirectionDegrees,WindSpeedMPH,WindSpeedGustMPH,Humidity,HourlyPrecipIn,Conditions,Clouds,dailyrainin,SolarRadiationWatts/m^2,SoftwareType,DateUTC
2013-06-30 00:01:00,77.7,75.2,29.86,SSE,159,0.0,4.0,92,0.00,,BKN040,1.09,0.00,VWS V14.01,2013-06-30 04:01:00,
2013-06-30 00:06:00,77.7,75.2,29.86,SSE,163,4.0,4.0,92,0.00,,BKN040,0.00,0.00,VWS V14.01,2013-06-30 04:06:00,
2013-06-30 00:11:00,77.8,75.3,29.86,SSE,161,4.0,5.0,92,0.00,,BKN040,0.00,0.00,VWS V14.01,2013-06-30 04:11:00,
2013-06-30 00:16:00,77.9,75.1,29.86,SSE,162,1.0,4.0,91,0.00,,BKN040,0.00,0.00,VWS V14.01,2013-06-30 04:16:00,
2013-06-30 00:21:00,77.9,75.1,29.86,SSE,163,1.0,2.0,91,0.00,,BKN040,0.00,0.00,VWS V14.01,2013-06-30 04:21:00,
2013-06-30 00:26:00,78.0,75.2,29.86,SSE,165,1.0,4.0,91,0.00,,BKN040,0.00,0.00,VWS V14.01,2013-06-30 04:26:00,
2013-06-30 00:31:00,78.0,75.2,29.86,SSE,167,1.0,4.0,91,0.00,,BKN040,0.00,0.00,VWS V14.01,2013-06-30 04:31:00,
2013-06-30 00:36:00,78.0,75.2,29.86,SSE,166,0.0,2.0,91,0.00,,BKN040,0.00,0.00,VWS V14.01,2013-06-30 04:36:00,
2013-06-30 00:41:00,78.0,75.2,29.86,SSE,162,3.0,4.0,91,0.00,,BKN040,0.00,0.00,VWS V14.01,2013-06-30 04:41:00,
2013-06-30 00:46:00,77.9,75.1,29.86,SSE,148,4.0,6.0,91,0.00,,BKN040,0.00,0.00,VWS V14.01,2013-06-30 04:46:00,
2013-06-30 00:51:00,77.8,75.0,29.86,SSE,148,2.0,6.0,91,0.00,,BKN040,0.00,0.00,VWS V14.01,2013-06-30 04:51:00,
2013-06-30 00:56:00,77.8,75.0,29.86,SE,145,2.0,3.0,91,0.00,,BKN040,0.00,0.00,VWS V14.01,2013-06-30 04:56:00,
2013-06-30 01:01:00,77.8,75.0,29.86,SE,144,0.0,4.0,91,0.00,,BKN040,0.00,0.00,VWS V14.01,2013-06-30 05:01:00,
2013-06-30 01:06:00,77.7,74.9,29.86,SE,144,0.0,2.0,91,0.00,,BKN040,0.00,0.00,VWS V14.01,2013-06-30 05:06:00,
2013-06-30 01:11:00,77.7,74.9,29.86,SE,144,1.0,2.0,91,0.00,,BKN040,0.00,0.00,VWS V14.01,2013-06-30 05:11:00,
2013-06-30 01:16:00,77.7,74.9,29.85,SE,144,1.0,2.0,91,0.00,,BKN040,0.00,0.00,VWS V14.01,2013-06-30 05:16:00,
2013-06-30 01:21:00,77.6,74.8,29.85,SE,144,2.0,3.0,91,0.00,,BKN040,0.00,0.00,VWS V14.01,2013-06-30 05:21:00,
2013-06-30 01:26:00,77.6,74.8,29.85,SE,144,5.0,5.0,91,0.00,,BKN040,0.00,0.00,VWS V14.01,2013-06-30 05:26:00,
2013-06-30 01:31:00,77.5,74.7,29.85,SE,144,0.0,4.0,91,0.00,,BKN040,0.00,0.00,VWS V14.01,2013-06-30 05:31:00,
2013-06-30 01:36:00,77.5,74.7,29.85,SE,144,0.0,4.0,91,0.00,,BKN040,0.00,0.00,VWS V14.01,2013-06-30 05:36:00,
2013-06-30 01:41:00,77.5,74.7,29.85,SE,144,0.0,0.0,91,0.00,,BKN040,0.00,0.00,VWS V14.01,2013-06-30 05:41:00,
2013-06-30 01:46:00,77.5,74.7,29.85,SE,144,0.0,3.0,91,0.00,,BKN040,0.00,0.00,VWS V14.01,2013-06-30 05:46:00,
2013-06-30 01:51:00,77.4,74.6,29.85,SE,144,2.0,2.0,91,0.00,,BKN040,0.00,0.00,VWS V14.01,2013-06-30 05:51:00,
2013-06-30 01:56:00,77.4,74.6,29.85,SE,144,0.0,3.0,91,0.00,,BKN040,0.00,0.00,VWS V14.01,2013-06-30 05:56:00,
2013-06-30 02:01:00,77.3,74.5,29.85,SE,144,0.0,4.0,91,0.00,,BKN040,0.00,0.00,VWS V14.01,2013-06-30 06:01:00,
2013-06-30 02:06:00,77.2,74.0,29.84,SE,144,0.0,3.0,90,0.00,,BKN040,0.00,0.00,VWS V14.01,2013-06-30 06:06:00,
2013-06-30 02:11:00,77.1,73.9,29.85,SSE,150,3.0,5.0,90,0.00,,BKN040,0.00,0.00,VWS V14.01,2013-06-30 06:11:00,
2013-06-30 02:16:00,77.1,73.9,29.84,SSE,150,1.0,4.0,90,0.00,,BKN040,0.00,0.00,VWS V14.01,2013-06-30 06:16:00,
2013-06-30 02:21:00,77.0,73.8,29.84,SSE,150,1.0,4.0,90,0.00,,BKN040,0.00,0.00,VWS V14.01,2013-06-30 06:21:00,
2013-06-30 02:26:00,77.0,73.8,29.84,SSE,150,0.0,2.0,90,0.00,,BKN040,0.00,0.00,VWS V14.01,2013-06-30 06:26:00,
2013-06-30 02:31:00,76.9,73.8,29.84,SSE,150,0.0,1.0,90,0.00,,BKN040,0.00,0.00,VWS V14.01,2013-06-30 06:31:00,
2013-06-30 02:36:00,76.9,73.8,29.84,SSE,150,0.0,4.0,90,0.00,,BKN040,0.00,0.00,VWS V14.01,2013-06-30 06:36:00,
2013-06-30 02:41:00,76.9,73.8,29.84,SSE,150,0.0,3.0,90,0.00,,BKN040,0.00,0.00,VWS V14.01,2013-06-30 06:41:00,
2013-06-30 02:46:00,76.9,73.8,29.84,SSE,150,1.0,3.0,90,0.00,,BKN040,0.00,0.00,VWS V14.01,2013-06-30 06:46:00,
2013-06-30 02:51:00,76.8,73.7,29.84,SSE,150,0.0,2.0,90,0.00,,BKN040,0.00,0.00,VWS V14.01,2013-06-30 06:51:00,
2013-06-30 02:56:00,76.8,73.7,29.83,SSE,151,1.0,3.0,90,0.00,,BKN040,0.00,0.00,VWS V14.01,2013-06-30 06:56:00,
2013-06-30 03:01:00,76.8,73.7,29.83,SSE,153,0.0,3.0,90,0.00,,BKN040,0.00,0.00,VWS V14.01,2013-06-30 07:01:00,
2013-06-30 03:06:00,76.7,73.6,29.83,SSE,157,0.0,4.0,90,0.00,,BKN040,0.00,0.00,VWS V14.01,2013-06-30 07:06:00,
2013-06-30 03:11:00,76.7,73.6,29.83,SSE,157,0.0,2.0,90,0.00,,BKN040,0.00,0.00,VWS V14.01,2013-06-30 07:11:00,
2013-06-30 03:16:00,76.7,73.6,29.83,SSE,157,0.0,4.0,90,0.00,,BKN040,0.00,0.00,VWS V14.01,2013-06-30 07:16:00,
2013-06-30 03:21:00,76.7,73.6,29.83,SSE,159,0.0,3.0,90,0.00,,BKN040,0.00,0.00,VWS V14.01,2013-06-30 07:21:00,
2013-06-30 03:26:00,76.7,73.6,29.83,SSE,161,0.0,5.0,90,0.00,,BKN040,0.00,0.00,VWS V14.01,2013-06-30 07:26:00,
2013-06-30 03:31:00,76.7,73.9,29.83,SSE,161,0.0,3.0,91,0.00,,BKN040,0.00,0.00,VWS V14.01,2013-06-30 07:31:00,
2013-06-30 03:36:00,76.7,73.9,29.83,SSE,161,0.0,3.0,91,0.00,,BKN040,0.00,0.00,VWS V14.01,2013-06-30 07:36:00,
2013-06-30 03:41:00,76.7,73.9,29.83,SSE,161,0.0,2.0,91,0.00,,BKN040,0.00,0.00,VWS V14.01,2013-06-30 07:41:00,
2013-06-30 03:46:00,76.7,73.9,29.83,SSE,161,1.0,3.0,91,0.00,,BKN040,0.00,0.00,VWS V14.01,2013-06-30 07:46:00,
2013-06-30 03:51:00,76.8,74.0,29.83,SSE,161,0.0,1.0,91,0.00,,BKN040,0.00,0.00,VWS V14.01,2013-06-30 07:51:00,
2013-06-30 03:56:00,76.8,74.0,29.83,SSE,161,0.0,2.0,91,0.00,,BKN040,0.00,0.00,VWS V14.01,2013-06-30 07:56:00,
2013-06-30 04:01:00,76.8,74.0,29.83,SSE,161,0.0,0.0,91,0.00,,BKN040,0.00,0.00,VWS V14.01,2013-06-30 08:01:00,
2013-06-30 04:06:00,76.8,74.0,29.83,SSE,161,0.0,1.0,91,0.00,,BKN040,0.00,0.00,VWS V14.01,2013-06-30 08:06:00,
2013-06-30 04:11:00,76.7,73.9,29.83,SSE,161,0.0,3.0,91,0.00,,BKN040,0.00,0.00,VWS V14.01,2013-06-30 08:11:00,
2013-06-30 04:16:00,76.7,73.9,29.83,SSE,161,0.0,1.0,91,0.00,,BKN040,0.00,0.00,VWS V14.01,2013-06-30 08:16:00,
2013-06-30 04:21:00,76.7,73.9,29.84,SSE,161,0.0,1.0,91,0.00,,BKN040,0.00,0.00,VWS V14.01,2013-06-30 08:21:00,
2013-06-30 04:26:00,76.7,73.9,29.83,SSE,161,0.0,1.0,91,0.00,,BKN040,0.00,0.00,VWS V14.01,2013-06-30 08:26:00,
2013-06-30 04:31:00,76.7,73.9,29.83,SSE,161,1.0,3.0,91,0.00,,BKN040,0.00,0.00,VWS V14.01,2013-06-30 08:31:00,
2013-06-30 04:36:00,76.6,73.8,29.83,SSE,161,0.0,0.0,91,0.00,,BKN040,0.00,0.00,VWS V14.01,2013-06-30 08:36:00,
2013-06-30 04:41:00,76.6,73.8,29.83,SSE,161,0.0,1.0,91,0.00,,BKN040,0.00,0.00,VWS V14.01,2013-06-30 08:41:00,
2013-06-30 04:46:00,76.6,73.8,29.82,SSE,161,0.0,1.0,91,0.00,,BKN040,0.00,0.00,VWS V14.01,2013-06-30 08:46:00,
2013-06-30 04:51:00,76.5,73.7,29.82,SSE,161,0.0,2.0,91,0.00,,BKN040,0.00,0.00,VWS V14.01,2013-06-30 08:51:00,
2013-06-30 04:56:00,76.5,73.7,29.82,SSE,161,1.0,3.0,91,0.00,,BKN040,0.00,0.00,VWS V14.01,2013-06-30 08:56:00,
2013-06-30 05:01:00,76.6,73.8,29.82,SSE,161,0.0,1.0,91,0.00,,BKN040,0.00,0.00,VWS V14.01,2013-06-30 09:01:00,
2013-06-30 05:06:00,76.6,73.8,29.82,SSE,161,0.0,1.0,91,0.00,,BKN040,0.00,0.00,VWS V14.01,2013-06-30 09:06:00,
2013-06-30 05:11:00,76.6,73.8,29.82,SSE,161,2.0,3.0,91,0.00,,BKN040,0.00,0.00,VWS V14.01,2013-06-30 09:11:00,
2013-06-30 05:16:00,76.6,74.1,29.82,SSE,161,1.0,1.0,92,0.00,,BKN040,0.00,0.00,VWS V14.01,2013-06-30 09:16:00,
2013-06-30 05:21:00,76.6,74.1,29.83,SSE,161,0.0,1.0,92,0.00,,BKN040,0.00,0.00,VWS V14.01,2013-06-30 09:21:00,
2013-06-30 05:26:00,76.6,74.1,29.83,SSE,161,0.0,3.0,92,0.00,,BKN040,0.00,0.00,VWS V14.01,2013-06-30 09:26:00,
2013-06-30 05:31:00,76.6,74.1,29.83,SSE,161,1.0,3.0,92,0.00,,BKN040,0.00,0.00,VWS V14.01,2013-06-30 09:31:00,
2013-06-30 05:36:00,76.6,74.1,29.83,SSE,161,0.0,3.0,92,0.00,,BKN040,0.00,0.00,VWS V14.01,2013-06-30 09:36:00,
2013-06-30 05:41:00,76.6,74.1,29.84,SSE,161,0.0,3.0,92,0.00,,BKN040,0.00,0.00,VWS V14.01,2013-06-30 09:41:00,
2013-06-30 05:46:00,76.6,74.1,29.84,SSE,161,0.0,2.0,92,0.00,,BKN040,0.00,0.00,VWS V14.01,2013-06-30 09:46:00,
2013-06-30 05:51:00,76.6,74.1,29.84,SSE,161,0.0,0.0,92,0.00,,BKN040,0.00,0.00,VWS V14.01,2013-06-30 09:51:00,
2013-06-30 05:56:00,76.6,74.1,29.84,SSE,161,0.0,1.0,92,0.00,,BKN040,0.00,0.00,VWS V14.01,2013-06-30 09:56:00,
2013-06-30 06:01:00,76.6,74.1,29.84,SSE,161,0.0,2.0,92,0.00,,BKN040,0.00,0.00,VWS V14.01,2013-06-30 10:01:00,
2013-06-30 06:06:00,76.6,74.1,29.84,SSE,161,0.0,2.0,92,0.00,,BKN040,0.00,0.00,VWS V14.01,2013-06-30 10:06:00,
2013-06-30 06:11:00,76.5,74.0,29.84,SSE,161,1.0,1.0,92,0.00,,BKN040,0.00,0.00,VWS V14.01,2013-06-30 10:11:00,
2013-06-30 06:16:00,76.5,74.0,29.84,SSE,161,0.0,1.0,92,0.00,,BKN040,0.00,0.00,VWS V14.01,2013-06-30 10:16:00,
2013-06-30 06:21:00,76.5,74.0,29.84,SSE,161,3.0,3.0,92,0.00,,BKN040,0.00,0.00,VWS V14.01,2013-06-30 10:21:00,
2013-06-30 06:26:00,76.5,74.0,29.84,SSE,161,0.0,1.0,92,0.00,,BKN040,0.00,0.00,VWS V14.01,2013-06-30 10:26:00,
2013-06-30 06:31:00,76.5,74.0,29.84,SSE,161,0.0,3.0,92,0.00,,BKN040,0.00,0.00,VWS V14.01,2013-06-30 10:31:00,
2013-06-30 06:36:00,76.5,74.0,29.84,SSE,161,0.0,3.0,92,0.00,,BKN040,0.00,0.00,VWS V14.01,2013-06-30 10:36:00,
2013-06-30 06:41:00,76.5,74.0,29.84,SSE,161,0.0,3.0,92,0.00,,BKN040,0.00,7.00,VWS V14.01,2013-06-30 10:41:00,
2013-06-30 06:46:00,76.6,74.1,29.84,SSE,161,0.0,2.0,92,0.00,,BKN040,0.00,9.00,VWS V14.01,2013-06-30 10:46:00,
2013-06-30 06:51:00,76.7,74.2,29.84,SSE,164,2.0,4.0,92,0.00,,BKN040,0.00,14.00,VWS V14.01,2013-06-30 10:51:00,
2013-06-30 06:56:00,76.7,74.2,29.84,SSE,163,2.0,2.0,92,0.00,,BKN040,0.00,16.00,VWS V14.01,2013-06-30 10:56:00,
2013-06-30 07:01:00,76.8,74.3,29.85,SSE,164,1.0,5.0,92,0.00,,CLR,0.00,19.00,VWS V14.01,2013-06-30 11:01:00,
2013-06-30 07:06:00,76.9,74.4,29.85,SSE,165,0.0,1.0,92,0.00,,CLR,0.00,21.00,VWS V14.01,2013-06-30 11:06:00,
2013-06-30 07:11:00,77.0,74.8,29.85,SSE,164,0.0,2.0,93,0.00,,CLR,0.00,25.00,VWS V14.01,2013-06-30 11:11:00,
2013-06-30 07:16:00,77.1,74.6,29.85,SSE,164,0.0,2.0,92,0.00,,CLR,0.00,32.00,VWS V14.01,2013-06-30 11:16:00,
2013-06-30 07:21:00,77.1,74.6,29.85,SSE,165,1.0,2.0,92,0.00,,CLR,0.00,53.00,VWS V14.01,2013-06-30 11:21:00,
2013-06-30 07:26:00,77.3,75.1,29.85,SSE,165,0.0,2.0,93,0.00,,CLR,0.00,70.00,VWS V14.01,2013-06-30 11:26:00,
2013-06-30 07:31:00,77.5,75.3,29.85,SSE,165,0.0,3.0,93,0.00,,CLR,0.00,98.00,VWS V14.01,2013-06-30 11:31:00,
2013-06-30 07:36:00,77.8,75.6,29.86,SSE,165,0.0,4.0,93,0.00,,CLR,0.00,114.00,VWS V14.01,2013-06-30 11:36:00,
2013-06-30 07:41:00,78.1,75.9,29.86,South,182,1.0,5.0,93,0.00,,CLR,0.00,134.00,VWS V14.01,2013-06-30 11:41:00,
2013-06-30 07:46:00,78.5,76.3,29.86,South,187,3.0,4.0,93,0.00,,CLR,0.00,148.00,VWS V14.01,2013-06-30 11:46:00,
2013-06-30 07:51:00,78.8,76.6,29.86,SSW,192,2.0,5.0,93,0.00,,CLR,0.00,162.00,VWS V14.01,2013-06-30 11:51:00,
2013-06-30 07:56:00,79.2,76.7,29.86,South,182,1.0,6.0,92,0.00,,CLR,0.00,178.00,VWS V14.01,2013-06-30 11:56:00,
2013-06-30 08:01:00,79.5,77.0,29.86,South,189,0.0,6.0,92,0.00,,CLR,0.00,197.00,VWS V14.01,2013-06-30 12:01:00,
2013-06-30 08:06:00,80.0,77.1,29.86,South,179,9.0,10.0,91,0.00,,CLR,0.00,200.00,VWS V14.01,2013-06-30 12:06:00,
2013-06-30 08:11:00,80.3,77.4,29.86,South,173,6.0,9.0,91,0.00,,CLR,0.00,213.00,VWS V14.01,2013-06-30 12:11:00,
2013-06-30 08:16:00,80.7,77.5,29.86,SSW,213,0.0,7.0,90,0.00,,CLR,0.00,225.00,VWS V14.01,2013-06-30 12:16:00,
2013-06-30 08:21:00,81.2,77.7,29.86,SSE,163,4.0,7.0,89,0.00,,CLR,0.00,236.00,VWS V14.01,2013-06-30 12:21:00,
2013-06-30 08:26:00,81.6,77.7,29.86,SSE,163,0.0,6.0,88,0.00,,CLR,0.00,248.00,VWS V14.01,2013-06-30 12:26:00,
2013-06-30 08:31:00,82.1,77.8,29.87,South,184,5.0,9.0,87,0.00,,CLR,0.00,271.00,VWS V14.01,2013-06-30 12:31:00,
2013-06-30 08:36:00,82.6,78.0,29.87,South,185,4.0,5.0,86,0.00,,CLR,0.00,294.00,VWS V14.01,2013-06-30 12:36:00,
2013-06-30 08:41:00,83.0,77.7,29.87,South,190,5.0,6.0,84,0.00,,CLR,0.00,318.00,VWS V14.01,2013-06-30 12:41:00,
2013-06-30 08:46:00,83.4,77.7,29.87,SSW,203,4.0,11.0,83,0.00,,CLR,0.00,330.00,VWS V14.01,2013-06-30 12:46:00,
2013-06-30 08:51:00,83.8,77.7,29.87,SSW,199,1.0,11.0,82,0.00,,CLR,0.00,345.00,VWS V14.01,2013-06-30 12:51:00,
2013-06-30 08:56:00,84.1,77.3,29.87,South,169,3.0,13.0,80,0.00,,CLR,0.00,371.00,VWS V14.01,2013-06-30 12:56:00,
2013-06-30 09:01:00,84.5,77.3,29.87,SSW,192,2.0,13.0,79,0.00,,CLR,0.00,448.00,VWS V14.01,2013-06-30 13:01:00,
2013-06-30 09:06:00,84.8,77.6,29.87,SSW,207,3.0,9.0,79,0.00,,CLR,0.00,404.00,VWS V14.01,2013-06-30 13:06:00,
2013-06-30 09:10:00,85.1,77.5,29.87,South,173,1.0,8.0,78,0.00,,CLR,0.00,417.00,VWS V14.01,2013-06-30 13:10:00,
2013-06-30 09:15:00,85.5,77.5,29.87,SSW,192,6.0,10.0,77,0.00,,CLR,0.00,424.00,VWS V14.01,2013-06-30 13:15:00,
2013-06-30 09:20:00,85.6,77.6,29.87,SSW,192,2.0,9.0,77,0.00,,CLR,0.00,492.00,VWS V14.01,2013-06-30 13:20:00,
2013-06-30 09:25:00,85.7,77.3,29.86,South,174,7.0,10.0,76,0.00,,CLR,0.00,287.00,VWS V14.01,2013-06-30 13:25:00,
2013-06-30 09:30:00,85.6,76.8,29.87,SSW,210,2.0,12.0,75,0.00,,CLR,0.00,248.00,VWS V14.01,2013-06-30 13:30:00,
2013-06-30 09:36:00,85.7,76.9,29.87,SSW,198,6.0,11.0,75,0.00,,CLR,0.00,151.00,VWS V14.01,2013-06-30 13:36:00,
2013-06-30 09:41:00,85.7,76.1,29.87,SW,215,5.0,13.0,73,0.00,,CLR,0.00,487.00,VWS V14.01,2013-06-30 13:41:00,
2013-06-30 09:45:00,86.0,76.3,29.87,South,173,3.0,11.0,73,0.00,,CLR,0.00,545.00,VWS V14.01,2013-06-30 13:45:00,
2013-06-30 09:50:00,86.4,75.9,29.87,SSW,195,1.0,13.0,71,0.00,,CLR,0.00,554.00,VWS V14.01,2013-06-30 13:50:00,
2013-06-30 09:55:00,86.9,75.9,29.87,SSE,157,6.0,13.0,70,0.00,,CLR,0.00,578.00,VWS V14.01,2013-06-30 13:55:00,
2013-06-30 10:01:00,87.2,75.8,29.87,SE,131,8.0,14.0,69,0.00,,CLR,0.00,596.00,VWS V14.01,2013-06-30 14:01:00,
2013-06-30 10:06:00,87.7,76.3,29.87,SSE,165,6.0,10.0,69,0.00,,SCT037,0.00,584.00,VWS V14.01,2013-06-30 14:06:00,
2013-06-30 10:11:00,88.1,76.2,29.87,SE,143,9.0,13.0,68,0.00,,SCT037,0.00,682.00,VWS V14.01,2013-06-30 14:11:00,
2013-06-30 10:16:00,88.5,77.0,29.87,SSE,160,7.0,15.0,69,0.00,,SCT037,0.00,633.00,VWS V14.01,2013-06-30 14:16:00,
2013-06-30 10:21:00,88.8,76.4,29.87,South,190,4.0,14.0,67,0.00,,SCT037,0.00,740.00,VWS V14.01,2013-06-30 14:21:00,
2013-06-30 10:26:00,88.8,76.0,29.87,SW,230,2.0,15.0,66,0.00,,SCT037,0.00,563.00,VWS V14.01,2013-06-30 14:26:00,
2013-06-30 10:31:00,88.8,76.4,29.87,SSE,162,4.0,9.0,67,0.00,,SCT037,0.00,438.00,VWS V14.01,2013-06-30 14:31:00,
2013-06-30 10:36:00,88.5,75.7,29.87,SSW,200,13.0,14.0,66,0.00,,SCT037,0.00,397.00,VWS V14.01,2013-06-30 14:36:00,
2013-06-30 10:40:00,88.2,75.4,29.87,SSW,210,6.0,12.0,66,0.00,,SCT037,0.00,744.00,VWS V14.01,2013-06-30 14:40:00,
2013-06-30 10:45:00,88.5,76.2,29.87,WSW,247,2.0,12.0,67,0.00,,SCT037,0.00,677.00,VWS V14.01,2013-06-30 14:45:00,
2013-06-30 10:50:00,89.0,76.2,29.87,SSE,157,12.0,12.0,66,0.00,,SCT037,0.00,726.00,VWS V14.01,2013-06-30 14:50:00,
2013-06-30 10:55:00,89.3,76.0,29.87,SW,225,5.0,11.0,65,0.00,,SCT037,0.00,726.00,VWS V14.01,2013-06-30 14:55:00,
2013-06-30 11:00:00,89.9,76.6,29.87,South,188,3.0,12.0,65,0.00,,SCT037,0.00,761.00,VWS V14.01,2013-06-30 15:00:00,
2013-06-30 11:05:00,90.3,76.5,29.87,SSE,157,0.0,10.0,64,0.00,,SCT037,0.00,789.00,VWS V14.01,2013-06-30 15:05:00,
2013-06-30 11:10:00,90.9,77.0,29.87,SW,219,4.0,9.0,64,0.00,,SCT037,0.00,833.00,VWS V14.01,2013-06-30 15:10:00,
2013-06-30 11:15:00,91.5,77.1,29.87,WSW,240,0.0,11.0,63,0.00,,SCT037,0.00,784.00,VWS V14.01,2013-06-30 15:15:00,
2013-06-30 11:20:00,91.8,76.9,29.87,SSW,207,6.0,11.0,62,0.00,,SCT037,0.00,793.00,VWS V14.01,2013-06-30 15:20:00,
2013-06-30 11:25:00,91.9,76.5,29.87,South,187,3.0,11.0,61,0.00,,SCT037,0.00,819.00,VWS V14.01,2013-06-30 15:25:00,
2013-06-30 11:30:00,92.2,76.8,29.87,SSW,192,6.0,10.0,61,0.00,,SCT037,0.00,842.00,VWS V14.01,2013-06-30 15:30:00,
2013-06-30 11:35:00,92.3,76.4,29.87,South,188,6.0,15.0,60,0.00,,SCT037,0.00,828.00,VWS V14.01,2013-06-30 15:35:00,
2013-06-30 11:40:00,92.2,75.8,29.86,South,186,4.0,14.0,59,0.00,,SCT037,0.00,243.00,VWS V14.01,2013-06-30 15:40:00,
2013-06-30 11:45:00,92.0,75.6,29.87,South,189,13.0,17.0,59,0.00,,SCT037,0.00,877.00,VWS V14.01,2013-06-30 15:45:00,
2013-06-30 11:50:00,92.0,75.6,29.87,South,182,7.0,15.0,59,0.00,,SCT037,0.00,905.00,VWS V14.01,2013-06-30 15:50:00,
2013-06-30 11:55:00,92.0,75.6,29.87,SSE,152,5.0,14.0,59,0.00,,SCT037,0.00,810.00,VWS V14.01,2013-06-30 15:55:00,
2013-06-30 12:00:00,91.7,75.3,29.87,South,178,11.0,14.0,59,0.00,,SCT037,0.00,218.00,VWS V14.01,2013-06-30 16:00:00,
2013-06-30 12:05:00,91.0,75.2,29.87,SSE,147,4.0,16.0,60,0.00,,BKN065,0.00,248.00,VWS V14.01,2013-06-30 16:05:00,
2013-06-30 12:10:00,89.6,74.4,29.87,ESE,103,10.0,15.0,61,0.00,,BKN065,0.00,253.00,VWS V14.01,2013-06-30 16:10:00,
2013-06-30 12:15:00,86.9,73.7,29.87,SSE,162,8.0,12.0,65,0.00,,BKN065,0.00,202.00,VWS V14.01,2013-06-30 16:15:00,
2013-06-30 12:20:00,85.9,76.7,29.89,SSW,202,12.0,12.0,74,0.00,,BKN065,0.00,90.00,VWS V14.01,2013-06-30 16:20:00,
2013-06-30 12:25:00,81.9,73.6,29.88,SE,145,12.0,25.0,76,0.01,,BKN065,0.01,100.00,VWS V14.01,2013-06-30 16:25:00,
2013-06-30 12:30:00,78.6,72.3,29.88,SE,126,9.0,15.0,81,0.02,,BKN065,0.02,113.00,VWS V14.01,2013-06-30 16:30:00,
2013-06-30 12:35:00,77.1,71.9,29.87,SE,145,4.0,10.0,84,0.02,,BKN065,0.02,141.00,VWS V14.01,2013-06-30 16:35:00,
2013-06-30 12:40:00,76.6,72.1,29.86,SE,130,4.0,9.0,86,0.03,,BKN065,0.03,156.00,VWS V14.01,2013-06-30 16:40:00,
2013-06-30 12:45:00,76.5,72.3,29.87,SE,138,5.0,5.0,87,0.04,,BKN065,0.04,190.00,VWS V14.01,2013-06-30 16:45:00,
2013-06-30 12:50:00,77.0,73.2,29.87,South,181,0.0,5.0,88,0.06,,BKN065,0.06,232.00,VWS V14.01,2013-06-30 16:50:00,
2013-06-30 12:55:00,77.4,73.9,29.87,South,178,3.0,3.0,89,0.07,,BKN065,0.07,255.00,VWS V14.01,2013-06-30 16:55:00,
2013-06-30 13:00:00,78.1,74.9,29.86,South,182,0.0,1.0,90,0.08,,BKN065,0.08,431.00,VWS V14.01,2013-06-30 17:00:00,
2013-06-30 13:05:00,78.9,76.1,29.86,South,175,3.0,4.0,91,0.10,,BKN065,0.10,596.00,VWS V14.01,2013-06-30 17:05:00,
2013-06-30 13:10:00,80.0,77.1,29.86,South,188,2.0,7.0,91,0.11,,BKN065,0.11,1069.00,VWS V14.01,2013-06-30 17:10:00,
2013-06-30 13:15:00,80.5,77.6,29.86,South,182,4.0,6.0,91,0.12,,SCT045,0.12,1039.00,VWS V14.01,2013-06-30 17:15:00,
2013-06-30 13:20:00,81.3,78.4,29.86,South,171,4.0,8.0,91,0.14,,SCT045,0.14,1004.00,VWS V14.01,2013-06-30 17:20:00,
2013-06-30 13:25:00,81.7,78.5,29.86,SE,146,11.0,11.0,90,0.15,,SCT045,0.16,636.00,VWS V14.01,2013-06-30 17:25:00,
2013-06-30 13:30:00,83.9,79.3,29.85,SSE,152,5.0,6.0,86,0.17,,SCT045,0.18,1093.00,VWS V14.01,2013-06-30 17:30:00,
2013-06-30 13:35:00,86.9,78.0,29.85,SE,144,6.0,13.0,75,0.18,,SCT045,0.20,1062.00,VWS V14.01,2013-06-30 17:35:00,
2013-06-30 13:40:00,88.3,77.7,29.85,South,173,0.0,10.0,71,0.20,,SCT045,0.22,1021.00,VWS V14.01,2013-06-30 17:40:00,
2013-06-30 13:45:00,89.0,77.9,29.85,South,182,3.0,13.0,70,0.20,,SCT045,0.24,1086.00,VWS V14.01,2013-06-30 17:45:00,
2013-06-30 13:50:00,89.2,77.3,29.84,SSE,160,9.0,18.0,68,0.21,,SCT045,0.26,601.00,VWS V14.01,2013-06-30 17:50:00,
2013-06-30 13:55:00,89.2,76.4,29.84,South,178,9.0,17.0,66,0.22,,SCT045,0.28,1018.00,VWS V14.01,2013-06-30 17:55:00,
2013-06-30 14:00:00,89.5,77.1,29.84,SSE,153,11.0,11.0,67,0.22,,SCT045,0.29,425.00,VWS V14.01,2013-06-30 18:00:00,
2013-06-30 14:05:00,90.5,78.1,29.84,SE,143,6.0,6.0,67,0.22,,SCT045,0.31,1107.00,VWS V14.01,2013-06-30 18:05:00,
2013-06-30 14:10:00,90.7,76.4,29.83,SE,142,6.0,18.0,63,0.22,,SCT080,0.32,417.00,VWS V14.01,2013-06-30 18:10:00,
2013-06-30 14:15:00,90.6,75.8,29.84,South,188,7.0,14.0,62,0.22,,SCT080,0.34,341.00,VWS V14.01,2013-06-30 18:15:00,
2013-06-30 14:20:00,90.4,75.6,29.83,SSE,153,17.0,17.0,62,0.22,,SCT080,0.35,404.00,VWS V14.01,2013-06-30 18:20:00,
2013-06-30 14:25:00,90.2,76.4,29.83,SSE,164,7.0,15.0,64,0.21,,SCT080,0.36,446.00,VWS V14.01,2013-06-30 18:25:00,
2013-06-30 14:30:00,89.7,77.3,29.83,SSE,165,10.0,19.0,67,0.20,,SCT080,0.37,149.00,VWS V14.01,2013-06-30 18:30:00,
2013-06-30 14:35:00,88.1,77.5,29.83,SE,143,4.0,16.0,71,0.20,,SCT080,0.38,178.00,VWS V14.01,2013-06-30 18:35:00,
2013-06-30 14:40:00,87.0,78.1,29.83,SSE,168,6.0,9.0,75,0.18,,SCT080,0.38,1011.00,VWS V14.01,2013-06-30 18:40:00,
2013-06-30 14:45:00,85.8,77.0,29.83,SSW,202,22.0,22.0,75,0.17,,SCT080,0.39,163.00,VWS V14.01,2013-06-30 18:45:00,
2013-06-30 14:50:00,84.4,75.6,29.83,South,182,18.0,20.0,75,0.16,,SCT080,0.40,237.00,VWS V14.01,2013-06-30 18:50:00,
2013-06-30 14:55:00,83.6,74.8,29.83,SSW,198,4.0,15.0,75,0.14,,SCT080,0.40,288.00,VWS V14.01,2013-06-30 18:55:00,
2013-06-30 15:00:00,83.6,74.8,29.83,SSE,156,14.0,17.0,75,0.12,,SCT080,0.40,538.00,VWS V14.01,2013-06-30 19:00:00,
2013-06-30 15:05:00,84.1,74.9,29.83,SE,142,6.0,12.0,74,0.10,,SCT080,0.40,294.00,VWS V14.01,2013-06-30 19:05:00,
2013-06-30 15:10:00,84.5,75.3,29.83,SSW,200,11.0,13.0,74,0.09,,SCT080,0.41,190.00,VWS V14.01,2013-06-30 19:10:00,
2013-06-30 15:15:00,84.5,74.5,29.83,SW,214,6.0,15.0,72,0.08,,SCT080,0.41,144.00,VWS V14.01,2013-06-30 19:15:00,
2013-06-30 15:20:00,84.7,75.1,29.84,SW,229,11.0,15.0,73,0.07,,SCT080,0.41,146.00,VWS V14.01,2013-06-30 19:20:00,
2013-06-30 15:25:00,84.8,75.2,29.83,South,185,6.0,12.0,73,0.05,,SCT080,0.41,151.00,VWS V14.01,2013-06-30 19:25:00,
2013-06-30 15:30:00,84.9,75.3,29.83,SSE,157,11.0,12.0,73,0.04,,SCT080,0.41,151.00,VWS V14.01,2013-06-30 19:30:00,
2013-06-30 15:35:00,85.1,75.5,29.84,SSE,159,0.0,11.0,73,0.03,,SCT080,0.41,160.00,VWS V14.01,2013-06-30 19:35:00,
2013-06-30 15:40:00,85.2,75.6,29.85,SSW,203,2.0,10.0,73,0.03,,SCT080,0.41,121.00,VWS V14.01,2013-06-30 19:40:00,
2013-06-30 15:45:00,85.3,75.2,29.84,SW,217,11.0,14.0,72,0.03,,SCT080,0.42,137.00,VWS V14.01,2013-06-30 19:45:00,
2013-06-30 15:50:00,85.4,75.3,29.84,SW,218,3.0,12.0,72,0.03,,SCT080,0.42,165.00,VWS V14.01,2013-06-30 19:50:00,
2013-06-30 15:55:00,85.4,75.3,29.85,SSW,198,4.0,13.0,72,0.02,,SCT080,0.42,141.00,VWS V14.01,2013-06-30 19:55:00,
2013-06-30 16:00:00,85.0,74.1,29.85,SW,218,7.0,18.0,70,0.02,,SCT080,0.42,116.00,VWS V14.01,2013-06-30 20:00:00,
2013-06-30 16:05:00,84.7,74.7,29.85,South,183,9.0,13.0,72,0.02,,SCT080,0.42,81.00,VWS V14.01,2013-06-30 20:05:00,
2013-06-30 16:10:00,84.0,73.2,29.84,SSW,210,6.0,21.0,70,0.02,,SCT080,0.42,98.00,VWS V14.01,2013-06-30 20:10:00,
2013-06-30 16:15:00,83.4,74.2,29.85,SW,229,1.0,7.0,74,0.01,,SCT080,0.42,81.00,VWS V14.01,2013-06-30 20:15:00,
2013-06-30 16:20:00,82.8,74.5,29.86,SW,228,0.0,3.0,76,0.01,,SCT080,0.42,35.00,VWS V14.01,2013-06-30 20:20:00,
2013-06-30 16:25:00,82.1,74.2,29.86,SW,236,0.0,2.0,77,0.01,,SCT080,0.42,19.00,VWS V14.01,2013-06-30 20:25:00,
2013-06-30 16:30:00,81.5,74.0,29.86,SW,236,0.0,2.0,78,0.01,,SCT080,0.42,32.00,VWS V14.01,2013-06-30 20:30:00,
2013-06-30 16:35:00,81.3,74.5,29.85,SW,236,0.0,1.0,80,0.01,,SCT080,0.42,53.00,VWS V14.01,2013-06-30 20:35:00,
2013-06-30 16:40:00,81.1,74.7,29.85,SW,223,0.0,0.0,81,0.01,,SCT080,0.42,63.00,VWS V14.01,2013-06-30 20:40:00,
2013-06-30 16:45:00,80.7,74.7,29.85,SE,142,3.0,7.0,82,0.01,,SCT080,0.42,81.00,VWS V14.01,2013-06-30 20:45:00,
2013-06-30 16:50:00,80.5,74.5,29.84,SSE,147,4.0,5.0,82,0.00,,SCT080,0.42,62.00,VWS V14.01,2013-06-30 20:50:00,
2013-06-30 16:55:00,80.5,74.5,29.85,SSE,147,4.0,8.0,82,0.01,,BKN038,0.43,19.00,VWS V14.01,2013-06-30 20:55:00,
2013-06-30 17:00:00,78.8,72.8,29.85,SE,146,17.0,21.0,82,0.01,,BKN038,0.43,40.00,VWS V14.01,2013-06-30 21:00:00,
2013-06-30 17:05:00,77.3,72.1,29.84,ESE,103,3.0,5.0,84,0.01,,BKN038,0.43,77.00,VWS V14.01,2013-06-30 21:05:00,
2013-06-30 17:10:00,77.0,72.5,29.85,ESE,103,0.0,0.0,86,0.01,,BKN038,0.43,72.00,VWS V14.01,2013-06-30 21:10:00,
2013-06-30 17:15:00,76.9,72.7,29.85,ESE,103,0.0,2.0,87,0.01,,BKN038,0.43,72.00,VWS V14.01,2013-06-30 21:15:00,
2013-06-30 17:20:00,77.1,73.3,29.85,ESE,103,1.0,1.0,88,0.02,,BKN038,0.44,60.00,VWS V14.01,2013-06-30 21:20:00,
2013-06-30 17:25:00,77.3,73.8,29.85,ESE,103,0.0,1.0,89,0.02,,BKN038,0.44,47.00,VWS V14.01,2013-06-30 21:25:00,
2013-06-30 17:30:00,77.6,74.1,29.86,ESE,103,1.0,1.0,89,0.02,,BKN038,0.44,40.00,VWS V14.01,2013-06-30 21:30:00,
2013-06-30 17:35:00,77.8,74.6,29.85,ESE,103,2.0,3.0,90,0.02,,BKN038,0.44,46.00,VWS V14.01,2013-06-30 21:35:00,
2013-06-30 17:40:00,77.9,74.7,29.85,ENE,61,0.0,3.0,90,0.02,,BKN038,0.44,25.00,VWS V14.01,2013-06-30 21:40:00,
2013-06-30 17:45:00,77.8,74.6,29.85,ENE,61,0.0,1.0,90,0.03,,BKN038,0.45,46.00,VWS V14.01,2013-06-30 21:45:00,
2013-06-30 17:50:00,77.9,74.7,29.85,ENE,61,0.0,0.0,90,0.03,,BKN038,0.45,42.00,VWS V14.01,2013-06-30 21:50:00,
2013-06-30 17:55:00,78.1,75.3,29.85,ENE,61,0.0,1.0,91,0.03,,BKN038,0.46,58.00,VWS V14.01,2013-06-30 21:55:00,
2013-06-30 18:00:00,78.2,75.4,29.85,ENE,61,1.0,1.0,91,0.03,,BKN038,0.46,62.00,VWS V14.01,2013-06-30 22:00:00,
2013-06-30 18:05:00,78.2,75.4,29.85,ENE,61,0.0,2.0,91,0.03,,BKN090,0.46,58.00,VWS V14.01,2013-06-30 22:05:00,
2013-06-30 18:10:00,78.3,75.5,29.85,ENE,61,1.0,2.0,91,0.03,,BKN090,0.46,74.00,VWS V14.01,2013-06-30 22:10:00,
2013-06-30 18:15:00,78.5,75.7,29.84,ENE,61,0.0,2.0,91,0.04,,BKN090,0.47,77.00,VWS V14.01,2013-06-30 22:15:00,
2013-06-30 18:20:00,78.7,75.9,29.84,ENE,61,0.0,2.0,91,0.03,,BKN090,0.47,72.00,VWS V14.01,2013-06-30 22:20:00,
2013-06-30 18:25:00,78.9,76.4,29.85,ENE,61,1.0,2.0,92,0.04,,BKN090,0.48,19.00,VWS V14.01,2013-06-30 22:25:00,
2013-06-30 18:30:00,77.9,75.1,29.86,SSE,168,5.0,15.0,91,0.04,,BKN090,0.48,23.00,VWS V14.01,2013-06-30 22:30:00,
2013-06-30 18:35:00,76.5,73.3,29.85,SSW,211,3.0,11.0,90,0.04,,BKN090,0.48,30.00,VWS V14.01,2013-06-30 22:35:00,
2013-06-30 18:40:00,75.7,72.6,29.86,ESE,119,1.0,6.0,90,0.04,,BKN090,0.48,37.00,VWS V14.01,2013-06-30 22:40:00,
2013-06-30 18:45:00,75.3,72.2,29.86,ESE,115,0.0,1.0,90,0.03,,BKN090,0.48,42.00,VWS V14.01,2013-06-30 22:45:00,
2013-06-30 18:50:00,75.2,72.4,29.85,ESE,115,0.0,0.0,91,0.04,,BKN090,0.49,49.00,VWS V14.01,2013-06-30 22:50:00,
2013-06-30 18:55:00,75.4,72.6,29.85,ESE,115,1.0,1.0,91,0.04,,OVC150,0.49,54.00,VWS V14.01,2013-06-30 22:55:00,
2013-06-30 19:00:00,75.6,73.1,29.85,ESE,115,0.0,3.0,92,0.04,,OVC150,0.50,58.00,VWS V14.01,2013-06-30 23:00:00,
2013-06-30 19:05:00,75.9,73.4,29.85,ESE,115,0.0,1.0,92,0.04,,OVC150,0.50,56.00,VWS V14.01,2013-06-30 23:05:00,
2013-06-30 19:10:00,76.3,73.8,29.86,ESE,115,0.0,1.0,92,0.04,,OVC150,0.50,56.00,VWS V14.01,2013-06-30 23:10:00,
2013-06-30 19:15:00,76.5,74.0,29.85,ESE,115,0.0,2.0,92,0.04,,OVC150,0.51,54.00,VWS V14.01,2013-06-30 23:15:00,
2013-06-30 19:20:00,76.7,74.2,29.85,ESE,115,2.0,3.0,92,0.04,,OVC150,0.51,49.00,VWS V14.01,2013-06-30 23:20:00,
2013-06-30 19:25:00,76.8,74.3,29.86,ESE,115,0.0,1.0,92,0.05,,OVC150,0.52,42.00,VWS V14.01,2013-06-30 23:25:00,
2013-06-30 19:30:00,76.9,74.4,29.86,ESE,115,0.0,0.0,92,0.04,,OVC150,0.52,33.00,VWS V14.01,2013-06-30 23:30:00,
2013-06-30 19:35:00,77.1,74.6,29.87,ESE,115,0.0,1.0,92,0.04,,OVC150,0.52,26.00,VWS V14.01,2013-06-30 23:35:00,
2013-06-30 19:40:00,77.2,75.0,29.86,ESE,115,0.0,1.0,93,0.05,,OVC150,0.53,21.00,VWS V14.01,2013-06-30 23:40:00,
2013-06-30 19:45:00,77.2,75.0,29.87,ESE,115,0.0,0.0,93,0.05,,OVC150,0.53,12.00,VWS V14.01,2013-06-30 23:45:00,
2013-06-30 19:50:00,77.4,75.2,29.87,ESE,115,2.0,3.0,93,0.06,,OVC150,0.54,0.00,VWS V14.01,2013-06-30 23:50:00,
2013-06-30 19:55:00,77.1,74.6,29.88,South,188,6.0,14.0,92,0.05,,OVC150,0.54,0.00,VWS V14.01,2013-06-30 23:55:00,
2013-06-30 20:00:00,76.5,74.0,29.88,South,184,3.0,9.0,92,0.04,,OVC150,0.54,0.00,VWS V14.01,2013-07-01 00:00:00,
2013-06-30 20:05:00,76.5,74.0,29.87,SSE,157,6.0,9.0,92,0.04,,OVC150,0.54,0.00,VWS V14.01,2013-07-01 00:05:00,
2013-06-30 20:10:00,76.5,74.0,29.88,South,171,10.0,11.0,92,0.04,,OVC150,0.54,0.00,VWS V14.01,2013-07-01 00:10:00,
2013-06-30 20:15:00,76.2,73.4,29.88,SSE,165,4.0,11.0,91,0.04,,OVC150,0.54,0.00,VWS V14.01,2013-07-01 00:15:00,
2013-06-30 20:20:00,76.1,73.3,29.89,SSW,196,3.0,4.0,91,0.03,,OVC150,0.54,0.00,VWS V14.01,2013-07-01 00:20:00,
2013-06-30 20:25:00,76.1,73.0,29.89,South,171,2.0,4.0,90,0.03,,OVC150,0.54,0.00,VWS V14.01,2013-07-01 00:25:00,
2013-06-30 20:30:00,76.2,73.1,29.89,South,173,2.0,3.0,90,0.02,,OVC150,0.54,0.00,VWS V14.01,2013-07-01 00:30:00,
2013-06-30 20:35:00,76.2,73.1,29.89,South,171,0.0,4.0,90,0.03,,OVC150,0.55,0.00,VWS V14.01,2013-07-01 00:35:00,
2013-06-30 20:40:00,76.4,73.2,29.89,SSE,163,0.0,4.0,90,0.03,,OVC150,0.55,0.00,VWS V14.01,2013-07-01 00:40:00,
2013-06-30 20:45:00,76.4,73.2,29.89,SE,135,5.0,6.0,90,0.02,,OVC150,0.55,0.00,VWS V14.01,2013-07-01 00:45:00,
2013-06-30 20:50:00,76.4,73.2,29.89,SE,146,1.0,5.0,90,0.02,,OVC150,0.55,0.00,VWS V14.01,2013-07-01 00:50:00,
2013-06-30 20:55:00,76.5,73.3,29.89,SSE,155,1.0,3.0,90,0.01,,OVC150,0.55,0.00,VWS V14.01,2013-07-01 00:55:00,
2013-06-30 21:00:00,76.4,73.2,29.90,SSE,155,0.0,3.0,90,0.01,,OVC150,0.55,0.00,VWS V14.01,2013-07-01 01:00:00,
2013-06-30 21:05:00,76.4,73.2,29.90,SSE,147,1.0,4.0,90,0.02,,OVC150,0.56,0.00,VWS V14.01,2013-07-01 01:05:00,
2013-06-30 21:10:00,76.4,73.6,29.90,SE,145,2.0,4.0,91,0.02,,OVC150,0.56,0.00,VWS V14.01,2013-07-01 01:10:00,
2013-06-30 21:15:00,76.5,73.7,29.90,SSE,150,2.0,4.0,91,0.02,,OVC150,0.56,0.00,VWS V14.01,2013-07-01 01:15:00,
2013-06-30 21:20:00,76.6,73.8,29.90,SSE,151,3.0,4.0,91,0.02,,OVC150,0.56,0.00,VWS V14.01,2013-07-01 01:20:00,
2013-06-30 21:25:00,76.7,73.9,29.90,SE,130,6.0,6.0,91,0.02,,OVC150,0.56,0.00,VWS V14.01,2013-07-01 01:25:00,
2013-06-30 21:30:00,76.7,73.9,29.90,SE,136,2.0,6.0,91,0.02,,OVC150,0.56,0.00,VWS V14.01,2013-07-01 01:30:00,
2013-06-30 21:35:00,76.8,74.0,29.90,South,175,3.0,4.0,91,0.02,,OVC150,0.56,0.00,VWS V14.01,2013-07-01 01:35:00,
2013-06-30 21:40:00,76.8,74.0,29.90,SSE,160,3.0,7.0,91,0.01,,OVC150,0.56,0.00,VWS V14.01,2013-07-01 01:40:00,
2013-06-30 21:45:00,76.9,74.1,29.90,South,177,4.0,5.0,91,0.02,,OVC150,0.57,0.00,VWS V14.01,2013-07-01 01:45:00,
2013-06-30 21:50:00,76.9,74.1,29.90,SSE,154,2.0,4.0,91,0.02,,OVC150,0.57,0.00,VWS V14.01,2013-07-01 01:50:00,
2013-06-30 21:55:00,76.9,74.1,29.90,SSW,194,0.0,5.0,91,0.02,,BKN085,0.57,0.00,VWS V14.01,2013-07-01 01:55:00,
2013-06-30 22:00:00,76.9,74.1,29.90,South,178,2.0,7.0,91,0.02,,BKN085,0.57,0.00,VWS V14.01,2013-07-01 02:00:00,
2013-06-30 22:05:00,76.9,74.1,29.90,SSE,161,0.0,5.0,91,0.02,,BKN085,0.58,0.00,VWS V14.01,2013-07-01 02:05:00,
2013-06-30 22:10:00,76.9,74.1,29.90,South,184,4.0,4.0,91,0.02,,BKN085,0.58,0.00,VWS V14.01,2013-07-01 02:10:00,
2013-06-30 22:15:00,76.9,74.1,29.90,South,171,4.0,4.0,91,0.02,,BKN085,0.58,0.00,VWS V14.01,2013-07-01 02:15:00,
2013-06-30 22:20:00,76.9,74.1,29.91,SSE,168,1.0,5.0,91,0.02,,BKN085,0.58,0.00,VWS V14.01,2013-07-01 02:20:00,
2013-06-30 22:25:00,77.0,74.2,29.91,SSE,168,0.0,3.0,91,0.02,,BKN085,0.58,0.00,VWS V14.01,2013-07-01 02:25:00,
2013-06-30 22:30:00,77.0,74.2,29.91,South,169,0.0,3.0,91,0.02,,BKN085,0.58,0.00,VWS V14.01,2013-07-01 02:30:00,
2013-06-30 22:35:00,77.1,74.3,29.91,South,169,0.0,3.0,91,0.02,,BKN085,0.58,0.00,VWS V14.01,2013-07-01 02:35:00,
2013-06-30 22:40:00,77.1,74.3,29.91,South,169,0.0,2.0,91,0.03,,BKN085,0.59,0.00,VWS V14.01,2013-07-01 02:40:00,
2013-06-30 22:45:00,77.1,74.3,29.91,South,170,0.0,4.0,91,0.02,,BKN085,0.59,0.00,VWS V14.01,2013-07-01 02:45:00,
2013-06-30 22:50:00,77.1,74.3,29.91,South,170,1.0,2.0,91,0.02,,BKN085,0.59,0.00,VWS V14.01,2013-07-01 02:50:00,
2013-06-30 22:55:00,77.1,74.3,29.91,South,170,0.0,2.0,91,0.02,,BKN065,0.59,0.00,VWS V14.01,2013-07-01 02:55:00,
2013-06-30 23:00:00,77.1,74.3,29.91,South,172,0.0,3.0,91,0.03,,BKN065,0.60,0.00,VWS V14.01,2013-07-01 03:00:00,
2013-06-30 23:05:00,77.1,74.3,29.91,South,171,0.0,1.0,91,0.03,,BKN065,0.60,0.00,VWS V14.01,2013-07-01 03:05:00,
2013-06-30 23:10:00,77.1,74.3,29.91,South,172,1.0,2.0,91,0.02,,BKN065,0.60,0.00,VWS V14.01,2013-07-01 03:10:00,
2013-06-30 23:15:00,77.1,74.3,29.91,South,171,0.0,2.0,91,0.02,,BKN065,0.60,0.00,VWS V14.01,2013-07-01 03:15:00,
2013-06-30 23:20:00,77.1,74.3,29.91,South,171,0.0,0.0,91,0.02,,BKN065,0.60,0.00,VWS V14.01,2013-07-01 03:20:00,
2013-06-30 23:25:00,77.1,74.3,29.91,South,171,0.0,1.0,91,0.02,,BKN065,0.60,0.00,VWS V14.01,2013-07-01 03:25:00,
2013-06-30 23:30:00,77.0,74.2,29.91,South,171,0.0,0.0,91,0.02,,BKN065,0.60,0.00,VWS V14.01,2013-07-01 03:30:00,
2013-06-30 23:35:00,77.0,74.2,29.91,South,171,0.0,1.0,91,0.02,,BKN065,0.60,0.00,VWS V14.01,2013-07-01 03:35:00,
2013-06-30 23:40:00,77.0,74.5,29.91,South,171,0.0,0.0,92,0.01,,BKN065,0.60,0.00,VWS V14.01,2013-07-01 03:40:00,
2013-06-30 23:45:00,77.0,74.5,29.91,South,171,0.0,0.0,92,0.02,,BKN065,0.61,0.00,VWS V14.01,2013-07-01 03:45:00,
2013-06-30 23:50:00,77.0,74.5,29.91,South,171,0.0,0.0,92,0.02,,BKN065,0.61,0.00,VWS V14.01,2013-07-01 03:50:00,
2013-06-30 23:55:00,76.9,74.4,29.92,South,171,0.0,0.0,92,0.02,,BKN065,0.61,0.00,VWS V14.01,2013-07-01 03:55:00,